loading
|
Showing default

LEMUR 2 CAEL, 58903

Orbit data source: Space-Track

LEMUR 2 CAEL, 58903 is an American payload satellite in SSO that was launched on Wed, 31 Jan 2024 UTC via an ELECTRON launch vehicle from the Rocket Lab Launch Complex (RLLC). Payloads include a variety of satellites, spacecraft, and rockets equipped with specific instruments for various scientific and technological missions. These include communications satellites like Starlink; space stations such as the ISS; scientific satellites like the Hubble; Earth observation satellites from companies like Planet Labs, Umbra, and HawkEye 360; GPS; miniature CubeSats for education and research; and military/defense satellites.

Loading next visibility...
Next conjunction unknown
Loading greatness...
LEMUR 2 CAEL details
Identifier
58903, 2024-022E
Orbit
SSO
Last TLE update11 hours ago
Origin
Flag of USSPIRE/NSTAR (US)
ManufacturerSpire/Glasgow
MissionOperational Commercial Early Warn
Bus & MotorCUBESAT 3U, Unknown motor
Mass~25 kg wet, ~25 kg dry
Launch date (UTC)
2024-01-31 (8 months ago)
Launch vehicle
ELECTRON
Launch site
Rocket Lab Launch Complex (RLLC)
Object type
Payload
Rocket body
Debris
Shape & HBRBox + 2 Pan, 1 m
Radar Cross Section0.146 m², Medium (>0.1 m² and < 1m²)

Expand to show TLE details & history

TLE from 11 hours ago
0 LEMUR 2 CAEL
1 58903U 24022E   24288.12689236  .00014738  00000-0  70130-3 0  9993
2 58903  97.4678 127.0288 0013742 102.0735 258.2041 15.19184652 38893
Epoch: 2024-10-14T03:02Z
Definitive object data (Epoch: 2024-10-14T03:02:43.499Z)
Latitude0.00003°
Longitude58.18905°
Altitude513.338 km
Speed7.606 km/s
True Right ascension08h 28m 06s
True Declination0° 00' 00"
Sunlit
Object was in daylight at TLE epoch
Predictive object data (real-time)
Latitude47.52336°
Longitude50.46799°
Altitude509.939 km
Speed7.617 km/s
Apparent Right ascension01h 39m 09s
Apparent Declination39° 40' 10"
Sunlit
Object is in daylight
Predictive observer data (real-time)
Local Sidereal Time08:53:16
Azimuth311.536° NW
Elevation12.828°
Doppler factor1
Orbital elements
Apogee514.732 km
Perigee495.814 km
Semi-major axis6,883.41 km
Eccentricity0.0013742
Inclination97.4678°
RAAN127.0288°
Arg. of periapsis102.0735°
True anomaly258.05001°
Mean anomaly258.2041°
Eccentric anomaly258.12705°
Mean motion3.80047 °/min
BSTAR0.0007013
Period94.73 mins
No data available

LEMUR 2 CAEL Visibility forecast

Observer location: 39.9160978°, -105.1181434

Span
Click to sort rows by Start time (UTC) header in descending order
Start Az.
Max El. time (UTC)
Max El. Az.
Max El.
End time (UTC)
End Az.
4 mins2024-10-15 01:46:15.238Z58.527° ENE2024-10-15 01:47:15.238Z86.229° E26.872°2024-10-15 01:50:15.238Z156.072° SSE
4 mins2024-10-15 13:58:15.238Z216.797° SW2024-10-15 13:59:15.238Z245.341° WSW29.467°2024-10-15 14:02:15.238Z323.536° NNW